Location: Unspecified
(0.0000°N, 0.0000°E)
Time: 12:38:08
(UTC+00:00)

P83-1 Hilat - Visible Passes

Search period start: 18 May 2026 00:00
Search period end: 28 May 2026 00:00
Orbit: 734 x 791 km, 82.0° (Epoch: 18 May)

Date Brightness Start Highest point End Pass type
(mag) Time Alt. Az. Time Alt. Az. Time Alt. Az.
22 May 10.4 20:17:45 12° N 20:17:45 12° N 20:18:03 10° N visible
23 May 10.0 19:38:44 13° NE 19:38:44 13° NE 19:39:25 10° NNE visible
24 May 10.1 20:39:36 22° NW 20:39:36 22° NW 20:41:54 10° NNW visible
25 May 8.2 20:00:11 64° NNW 20:00:11 64° NNW 20:04:29 10° N visible
26 May 8.2 19:20:24 38° SE 19:21:26 43° E 19:26:09 10° NNE visible
27 May 9.3 18:40:04 10° SE 18:43:22 18° E 18:46:39 10° NE visible
27 May 10.0 20:20:05 10° SW 20:24:00 23° W 20:27:56 10° NW visible
